Location: Grieser Field
(39.7333°N, 81.7975°W)
Time: 06:19:14
(UTC-04:00)

MOS 1-B - Visible Passes

Search period start: 30 June 2016 00:00
Search period end: 10 July 2016 00:00
Orbit: 906 x 913 km, 99.2° (Epoch: 29 June)

Date Brightness Start Highest point End Pass type
(mag) Time Alt. Az. Time Alt. Az. Time Alt. Az.
30 Jun 6.4 03:10:33 10° NE 03:14:28 18° E 03:18:22 10° SE visible
30 Jun 4.5 04:50:58 10° N 04:56:42 61° WNW 05:02:12 11° SSW visible
01 Jul 6.3 03:15:45 10° NE 03:20:00 20° E 03:24:12 10° SE visible
01 Jul 4.6 04:56:29 10° N 05:02:09 55° WNW 05:07:42 10° SSW visible
02 Jul 6.2 03:21:00 10° NE 03:25:30 23° E 03:29:58 10° SE visible
02 Jul 4.7 05:01:59 10° N 05:07:35 50° WNW 05:13:09 10° SW visible
03 Jul 6.0 03:26:16 10° NE 03:31:01 25° E 03:35:28 11° SSE visible
03 Jul 4.9 05:07:30 10° N 05:13:01 45° WNW 05:18:30 10° SW visible
04 Jul 5.9 03:31:34 10° NE 03:36:31 28° E 03:40:59 12° SSE visible
04 Jul 5.0 05:13:03 10° N 05:18:26 41° WNW 05:23:48 10° SW visible
05 Jul 5.8 03:36:53 10° NE 03:42:01 31° E 03:46:29 13° SSE visible
05 Jul 5.1 05:18:35 10° N 05:23:51 37° WNW 05:29:06 10° SW visible
06 Jul 5.6 03:42:15 10° NNE 03:47:32 35° E 03:51:59 14° SSE visible
06 Jul 5.3 05:24:08 10° N 05:29:17 33° WNW 05:34:24 10° SW visible
07 Jul 5.4 03:47:36 10° NNE 03:53:01 39° E 03:57:29 14° SSE visible
07 Jul 5.4 05:29:43 10° N 05:34:41 30° WNW 05:39:39 10° SW visible
08 Jul 5.3 03:52:59 10° NNE 03:58:30 43° E 04:03:00 15° SSE visible
08 Jul 5.5 05:35:18 10° N 05:40:06 27° WNW 05:44:53 10° WSW visible
09 Jul 5.1 03:58:22 10° NNE 04:03:59 48° E 04:08:30 16° S visible
